[[{"header":{"parameterUnit":"m.s-1","parameterCategory":2,"la1":30.2991,"la2":30.254,"lo1":-89.0895,"lo2":-89.0444,"dy":0.0017,"dx":0.0017,"nx":28,"ny":28,"refTime":"2024-03-02T03:00:00:Z","depth":"0","parameterNumber":2,"parameterNumberName":"U-component_of_CURRENTS"},"data":[0,0,0,0,0,0,0,0,0,0,0,0,0,0,0,0,0,0,0,0,0,0,0,0,0,0,0,0,0,0,0,0,0,0,0,0,0,0,0,0,0,0,0,0,0,0,0,0,0,0,0,0,0,0,0,0,0,0,-0.2085,-0.2086,0,-0.21,-0.21,-0.21,-0.2103,-0.2103,-0.2103,-0.2104,-0.2046,-0.2044,-0.2042,0,0,0,0,0,0,0,0,0,0,0,0,0,-0.1997,-0.1999,-0.2085,-0.2086,-0.2087,-0.21,-0.21,-0.21,-0.2103,-0.2103,-0.2104,-0.2104,-0.2046,-0.2044,-0.2042,0,0,0,0,0,0,0,0,0,0,0,0,0,-0.2022,-0.1999,-0.2085,-0.2093,-0.2094,-0.21,-0.21,-0.21,-0.2103,-0.2103,-0.2104,-0.2104,-0.2047,-0.2044,-0.2042,-0.2016,0,0,-0.2033,-0.2032,0,0,0,0,0,0,0,0,-0.2021,-0.2025,-0.2091,-0.2093,-0.2094,-0.2104,-0.2048,-0.2069,-0.2103,-0.2095,-0.2104,-0.2104,-0.2061,-0.2057,-0.2054,-0.2013,-0.201,-0.2033,-0.2031,-0.203,-0.203,0,0,0,0,0,0,0,-0.2019,-0.2024,-0.2087,-0.2092,-0.2094,-0.2075,-0.2079,-0.2052,-0.207,-0.2095,-0.2097,-0.2105,-0.2061,-0.2056,-0.2052,-0.201,-0.2033,-0.2031,-0.2029,-0.2028,-0.1947,-0.1947,0,0,0,0,0,0,-0.2029,-0.2023,-0.2086,-0.2088,-0.2063,-0.2076,-0.2081,-0.2097,-0.2072,-0.2071,-0.2105,-0.2106,-0.2061,-0.2055,-0.205,-0.205,-0.203,-0.2028,-0.2026,-0.1948,-0.1947,-0.1947,0,0,0,0,0,0,-0.2028,-0.2035,-0.2086,-0.2058,-0.2064,-0.2078,-0.2096,-0.2097,-0.2101,-0.2081,-0.2078,-0.211,-0.2061,-0.2054,-0.2028,-0.2046,-0.2027,-0.2024,-0.1948,-0.1948,-0.1947,-0.2029,0,0,0,0,0,0,-0.2025,-0.2035,-0.2045,-0.2059,-0.2066,-0.2102,-0.2096,-0.2097,-0.2108,-0.2108,-0.2084,-0.2079,-0.2061,-0.2032,-0.2025,-0.2042,-0.2022,-0.1949,-0.1948,-0.1947,-0.2027,-0.2031,-0.2034,0,0,0,0,0,-0.2022,-0.204,-0.2045,-0.2053,-0.2082,-0.2103,-0.2104,-0.2111,-0.2108,-0.2115,-0.209,-0.208,-0.2021,-0.2029,-0.2021,-0.2038,-0.195,-0.1948,-0.1947,-0.2025,-0.203,-0.2034,0,0,0,0,0,0,-0.2007,-0.2043,-0.2049,-0.2077,-0.2094,-0.2105,-0.2111,-0.2115,-0.2101,-0.2096,-0.2072,-0.2065,-0.2048,-0.2022,-0.2031,-0.2008,-0.1984,-0.1981,-0.2046,-0.205,-0.2054,-0.2096,-0.202,0,0,0,0,0,-0.201,-0.2032,-0.206,-0.208,-0.2089,-0.2098,-0.2106,-0.2113,-0.2108,-0.2104,-0.2087,-0.2058,-0.2035,-0.2027,-0.1997,-0.1985,-0.1978,-0.1987,-0.1991,-0.1995,-0.2021,-0.2039,-0.2049,-0.1943,-0.1943,-0.1943,0,0,-0.2006,-0.2031,-0.2042,-0.2078,-0.2086,-0.2108,-0.2103,-0.212,-0.2137,-0.2096,-0.2099,-0.2068,-0.203,-0.2019,-0.201,-0.2005,-0.2012,-0.1994,-0.1998,-0.2022,-0.204,-0.205,-0.206,-0.1942,-0.1942,-0.1943,0,0,-0.2015,-0.2036,-0.2057,-0.2077,-0.2104,-0.2113,-0.2122,-0.2137,-0.2142,-0.2135,-0.2113,-0.2103,-0.2055,-0.2055,-0.2041,-0.2045,-0.2027,-0.2021,-0.2087,-0.2105,-0.2115,-0.2124,-0.2098,-0.2104,-0.2031,-0.2031,-0.2031,0,-0.2013,-0.2048,-0.2064,-0.2093,-0.2115,-0.2119,-0.2148,-0.2153,-0.2157,-0.2172,-0.2142,-0.2118,-0.2081,-0.2101,-0.2097,-0.2062,-0.205,-0.2079,-0.2115,-0.2124,-0.2132,-0.2104,-0.211,-0.2035,-0.2035,-0.2034,-0.2034,0,-0.2037,-0.2069,-0.2082,-0.2124,-0.2147,-0.217,-0.2192,-0.2207,-0.2204,-0.2216,-0.2229,-0.2189,-0.218,-0.2164,-0.2127,-0.2168,-0.2131,-0.2117,-0.2117,-0.2149,-0.2115,-0.212,-0.204,-0.2039,-0.2038,-0.2037,0,0,-0.2027,-0.209,-0.2095,-0.2126,-0.2169,-0.2194,-0.2227,-0.227,-0.2291,-0.2298,-0.2326,-0.2307,-0.2296,-0.228,-0.2247,-0.2269,-0.2289,-0.222,-0.2219,-0.2218,-0.2299,-0.2271,-0.2273,-0.2287,-0.2289,-0.229,-0.2242,0,-0.2043,-0.2105,-0.2133,-0.2189,-0.2224,-0.2253,-0.2282,-0.2321,-0.2328,-0.2346,-0.2357,-0.2346,-0.2336,-0.2312,-0.2346,-0.2288,-0.231,-0.2301,-0.2248,-0.2246,-0.2239,-0.2282,-0.2168,-0.2117,-0.2247,-0.2248,-0.2248,0,-0.2057,-0.2104,-0.2161,-0.2236,-0.2253,-0.2279,-0.2338,-0.2363,-0.24,-0.2402,-0.2436,-0.2416,-0.2441,-0.2406,-0.2417,-0.2409,-0.237,-0.2343,-0.234,-0.23,-0.223,-0.2109,-0.2121,-0.2085,-0.2255,-0.2255,-0.2254,0,-0.2043,-0.2125,-0.2173,-0.2197,-0.2272,-0.2302,-0.2335,-0.2382,-0.239,-0.2425,-0.2422,-0.247,-0.2448,-0.246,-0.2412,-0.2404,-0.2408,-0.2379,-0.2333,-0.2327,-0.2215,-0.2198,-0.2213,-0.2409,-0.2409,-0.2409,-0.2409,0,-0.2051,-0.2091,-0.2167,-0.2189,-0.224,-0.2297,-0.2322,-0.2366,-0.2386,-0.2397,-0.2439,-0.2446,-0.2463,-0.2462,-0.2432,-0.2403,-0.2428,-0.2364,-0.2334,-0.2233,-0.2219,-0.217,-0.2183,-0.2407,-0.2408,-0.2408,-0.2408,0,-0.2018,-0.2071,-0.2125,-0.2206,-0.2226,-0.2258,-0.2291,-0.2296,-0.2342,-0.2347,-0.2352,-0.2408,-0.2427,-0.2442,-0.2427,-0.2405,-0.2335,-0.2364,-0.2228,-0.2186,-0.2114,-0.2135,-0.2133,-0.2072,-0.2301,-0.23,-0.2299,0,-0.2006,-0.2024,-0.2108,-0.2121,-0.2149,-0.2188,-0.2192,-0.2252,-0.2252,-0.2324,-0.2319,-0.2363,-0.2385,-0.238,-0.235,-0.2317,-0.2305,-0.2188,-0.2176,-0.2122,-0.2122,-0.2125,-0.2074,-0.2026,-0.2024,-0.2022,-0.202,0,-0.196,-0.1982,-0.2018,-0.2042,-0.2059,-0.2069,-0.2091,-0.2093,-0.2158,-0.2188,-0.2232,-0.2263,-0.23,-0.2243,-0.2228,-0.219,-0.2125,-0.2143,-0.2125,-0.1964,-0.193,-0.185,-0.2021,-0.2,-0.2002,-0.2003,-0.2004,-0.2005,-0.1898,-0.1908,-0.193,-0.1944,-0.1953,-0.1928,-0.19,-0.1941,-0.1947,-0.1982,-0.2091,-0.2121,-0.2117,-0.2093,-0.2067,-0.1954,-0.2008,-0.1869,-0.1908,-0.1923,-0.1859,-0.1989,-0.1924,-0.1926,-0.1927,-0.1928,-0.1929,0,-0.1814,-0.1816,-0.1821,-0.1818,-0.1763,-0.1807,-0.1801,-0.1758,-0.1751,-0.1835,-0.1876,-0.1905,-0.1856,-0.1869,-0.1789,-0.1718,-0.1664,-0.1676,-0.1636,-0.1601,-0.1724,-0.1707,-0.1547,-0.1547,-0.1547,-0.1547,-0.1547,-0.1547,-0.1765,-0.1735,-0.1737,-0.162,-0.1597,-0.149,-0.1465,-0.146,-0.149,-0.151,-0.1566,-0.1667,-0.1676,-0.1767,-0.1664,-0.1586,-0.154,-0.1496,-0.1536,-0.1607,-0.1627,-0.1646,-0.1631,-0.1458,-0.1459,-0.131,-0.1309,-0.1309]},{"header":{"parameterUnit":"m.s-1","parameterCategory":2,"la1":30.2991,"la2":30.254,"lo1":-89.0895,"lo2":-89.0444,"dy":0.0017,"dx":0.0017,"nx":28,"ny":28,"refTime":"2024-03-02T03:00:00:Z","depth":"0","parameterNumber":3,"parameterNumberName":"V-component_of_CURRENTS"},"data":[0,0,0,0,0,0,0,0,0,0,0,0,0,0,0,0,0,0,0,0,0,0,0,0,0,0,0,0,0,0,0,0,0,0,0,0,0,0,0,0,0,0,0,0,0,0,0,0,0,0,0,0,0,0,0,0,0,0,-0.0044,-0.0043,0,0.0045,0.0046,0.0047,0.0087,0.0087,0.0087,0.0087,0.0208,0.0212,0.0215,0,0,0,0,0,0,0,0,0,0,0,0,0,-0.0137,-0.0135,-0.0044,-0.0043,-0.0042,0.0045,0.0046,0.0047,0.0088,0.0087,0.0087,0.0087,0.0207,0.0211,0.0215,0,0,0,0,0,0,0,0,0,0,0,0,0,-0.0077,-0.0135,-0.0045,-0.0012,-0.0008,0.0044,0.0046,0.0047,0.0088,0.0087,0.0087,0.0087,0.0206,0.0211,0.0216,0.025,0,0,0.0231,0.0233,0,0,0,0,0,0,0,0,-0.008,-0.0073,-0.0018,-0.0014,-0.001,0.0055,0.0058,0.0117,0.0088,0.0052,0.0087,0.0087,0.016,0.0169,0.0186,0.0256,0.0261,0.0231,0.0234,0.0237,0.0238,0,0,0,0,0,0,0,-0.0085,-0.0077,-0.0009,-0.0017,-0.0012,0.0013,0.0021,0.0069,0.0106,0.0055,0.0058,0.0067,0.0162,0.0181,0.0189,0.0263,0.0231,0.0236,0.0239,0.0241,0.0385,0.0386,0,0,0,0,0,0,-0.0098,-0.0081,-0.0012,-0.0006,-0.0046,0.0015,0.0024,0.0034,0.0105,0.0116,0.0067,0.0069,0.0172,0.0183,0.0193,0.0241,0.0237,0.0241,0.0244,0.0384,0.0385,0.0386,0,0,0,0,0,0,-0.01,-0.0093,-0.0015,-0.0042,-0.003,0.0016,0.0028,0.0036,0.0055,0.0114,0.0125,0.0078,0.0173,0.0186,0.024,0.0246,0.0244,0.0248,0.0383,0.0385,0.0386,0.0334,0,0,0,0,0,0,-0.0103,-0.0094,-0.0093,-0.0043,-0.0029,0.0013,0.0029,0.0038,0.0061,0.0064,0.0127,0.0138,0.0174,0.0232,0.0245,0.0252,0.0252,0.0382,0.0384,0.0386,0.0335,0.0333,0.0332,0,0,0,0,0,-0.0107,-0.0106,-0.0093,-0.0085,-0.0028,0.0013,0.0023,0.0055,0.0062,0.0071,0.0116,0.0136,0.0251,0.0237,0.0251,0.0261,0.0382,0.0384,0.0385,0.0335,0.0334,0.0332,0,0,0,0,0,0,-0.015,-0.01,-0.0085,-0.007,-0.0033,0.002,0.0029,0.0053,0.0096,0.0096,0.015,0.0164,0.0212,0.0248,0.0231,0.0309,0.0319,0.0324,0.0276,0.0275,0.0274,0.0256,0.0256,0,0,0,0,0,-0.0158,-0.0142,-0.0091,-0.0081,-0.0065,-0.0018,0.0001,0.0025,0.0069,0.0087,0.0134,0.0185,0.0232,0.0261,0.0308,0.0353,0.0373,0.037,0.0369,0.0367,0.0364,0.04,0.0401,0.0393,0.0393,0.0393,0,0,-0.0176,-0.0143,-0.0137,-0.0088,-0.0059,-0.0037,-0.0007,0.002,0.0041,0.0095,0.0136,0.0182,0.0244,0.0291,0.0315,0.0321,0.0379,0.037,0.0368,0.0366,0.0402,0.0403,0.0403,0.0394,0.0394,0.0393,0,0,-0.0199,-0.0171,-0.0165,-0.0134,-0.0089,-0.0056,-0.005,0.0005,0.0031,0.0079,0.012,0.017,0.0246,0.029,0.0322,0.0346,0.0369,0.0362,0.0344,0.0378,0.0378,0.0379,0.0391,0.0393,0.0363,0.0363,0.0363,0,-0.0223,-0.0208,-0.0159,-0.0141,-0.0124,-0.0068,-0.0061,-0.0019,0.0046,0.0068,0.0085,0.0196,0.0246,0.0305,0.0312,0.0342,0.0356,0.0339,0.0374,0.0375,0.0376,0.0389,0.0392,0.0361,0.0361,0.0361,0.0361,0,-0.0237,-0.0227,-0.0222,-0.0181,-0.0151,-0.0139,-0.0077,-0.0045,-0.0008,0.0036,0.0101,0.0174,0.0236,0.0264,0.0297,0.0337,0.0341,0.0362,0.0369,0.0373,0.0387,0.0391,0.0357,0.0358,0.0359,0.0359,0,0,-0.0291,-0.0245,-0.0244,-0.0243,-0.0177,-0.0161,-0.0117,-0.0068,-0.0051,0.0028,0.0054,0.0153,0.0189,0.0228,0.028,0.0319,0.0339,0.0339,0.0342,0.0335,0.0395,0.043,0.0437,0.0361,0.0362,0.0363,0.0394,0,-0.0324,-0.0323,-0.0278,-0.0279,-0.0277,-0.0211,-0.0177,-0.0119,-0.0067,-0.0024,0.0066,0.0113,0.0178,0.0198,0.0251,0.0311,0.035,0.0327,0.0406,0.0408,0.0426,0.0444,0.0462,0.0496,0.0398,0.0399,0.04,0,-0.0351,-0.0351,-0.0361,-0.0339,-0.0331,-0.0313,-0.0267,-0.0229,-0.0141,-0.0102,-0.0028,0.0038,0.0115,0.0161,0.0278,0.0257,0.0322,0.0375,0.0378,0.0432,0.0452,0.0481,0.0507,0.0638,0.0406,0.0405,0.0405,0,-0.042,-0.041,-0.0429,-0.0419,-0.0374,-0.0365,-0.0337,-0.0256,-0.0235,-0.0158,-0.0143,-0.0029,0.0015,0.0118,0.0248,0.0252,0.0367,0.0385,0.0482,0.0484,0.0528,0.0533,0.0679,0.0468,0.0468,0.0468,0.0468,0,-0.0468,-0.0484,-0.0469,-0.0477,-0.0501,-0.0437,-0.0436,-0.039,-0.0329,-0.0314,-0.0196,-0.0163,0.0006,0.0103,0.0217,0.0363,0.0347,0.0481,0.0502,0.051,0.0513,0.0653,0.0707,0.0469,0.0469,0.0469,0.0468,0,-0.0527,-0.0513,-0.0546,-0.0534,-0.053,-0.0548,-0.0515,-0.0512,-0.0445,-0.0427,-0.0411,-0.0273,-0.0137,0.0038,0.0205,0.0319,0.0534,0.0511,0.0503,0.0523,0.0732,0.0781,0.0933,0.1009,0.0607,0.0609,0.061,0,-0.0553,-0.0572,-0.0605,-0.0633,-0.0629,-0.064,-0.0637,-0.0577,-0.0571,-0.0493,-0.0493,-0.0354,-0.0237,0.0032,0.0261,0.0474,0.0591,0.0609,0.0637,0.0755,0.0825,0.0857,0.0912,0.0664,0.0666,0.0667,0.0667,0,-0.0608,-0.0623,-0.0658,-0.072,-0.0745,-0.0765,-0.0759,-0.0772,-0.0701,-0.0676,-0.0608,-0.0511,-0.0216,0.0063,0.0367,0.0493,0.0707,0.0638,0.0773,0.0897,0.093,0.1009,0.0614,0.0677,0.0676,0.0676,0.0675,0.0675,-0.0654,-0.0709,-0.0757,-0.0815,-0.0847,-0.0875,-0.0892,-0.088,-0.0872,-0.0814,-0.0703,-0.0533,-0.0099,0.0345,0.0504,0.0841,0.0813,0.0933,0.0982,0.1004,0.1092,0.0713,0.0798,0.0797,0.0797,0.0797,0.0797,0,-0.071,-0.0767,-0.0838,-0.0904,-0.0948,-0.0938,-0.0957,-0.0964,-0.0963,-0.0862,-0.0762,-0.0312,0.0114,0.0517,0.1014,0.1184,0.1222,0.1256,0.1314,0.1355,0.1033,0.1052,0.1182,0.1182,0.1182,0.1182,0.1182,0.1181,-0.0743,-0.0833,-0.0878,-0.0973,-0.1006,-0.1044,-0.1057,-0.1062,-0.0994,-0.0812,-0.0571,-0.036,0.0238,0.1051,0.1502,0.1527,0.1676,0.1638,0.1731,0.1516,0.149,0.1465,0.1498,0.172,0.172,0.2039,0.2042,0.2044]}],[{"header":{"parameterUnit":"m.s-1","parameterCategory":2,"la1":30.2991,"la2":30.254,"lo1":-89.0895,"lo2":-89.0444,"dy":0.0017,"dx":0.0017,"nx":28,"ny":28,"refTime":"2024-03-02T03:00:00:Z","depth":"2","parameterNumber":2,"parameterNumberName":"U-component_of_CURRENTS"},"data":[0,0,0,0,0,0,0,0,0,0,0,0,0,0,0,0,0,0,0,0,0,0,0,0,0,0,0,0,0,0,0,0,0,0,0,0,0,0,0,0,0,0,0,0,0,0,0,0,0,0,0,0,0,0,0,0,0,0,-0.1509,-0.151,0,-0.1475,-0.1474,-0.1472,-0.1406,-0.1406,-0.1406,-0.1406,-0.1432,-0.1433,-0.1433,0,0,0,0,0,0,0,0,0,0,0,0,0,-0.1407,-0.1408,-0.1509,-0.151,-0.1511,-0.1476,-0.1474,-0.1471,-0.1406,-0.1406,-0.1406,-0.1407,-0.1432,-0.1433,-0.1433,0,0,0,0,0,0,0,0,0,0,0,0,0,-0.1405,-0.1409,-0.1508,-0.1486,-0.1484,-0.1476,-0.1473,-0.1471,-0.1406,-0.1406,-0.1406,-0.1407,-0.1432,-0.1433,-0.1433,-0.1432,0,0,-0.1436,-0.1436,0,0,0,0,0,0,0,0,-0.1405,-0.1406,-0.1488,-0.1487,-0.1486,-0.1459,-0.1448,-0.1467,-0.1406,-0.1418,-0.1406,-0.1407,-0.1457,-0.1456,-0.1425,-0.1434,-0.1435,-0.1436,-0.1436,-0.1436,-0.1437,0,0,0,0,0,0,0,-0.1405,-0.1407,-0.1479,-0.149,-0.1489,-0.1441,-0.144,-0.1449,-0.1425,-0.1417,-0.1417,-0.1439,-0.1455,-0.1424,-0.1426,-0.1435,-0.1436,-0.1436,-0.1437,-0.1437,-0.1438,-0.1438,0,0,0,0,0,0,-0.1448,-0.1408,-0.148,-0.148,-0.1464,-0.1445,-0.1443,-0.1454,-0.1424,-0.1424,-0.1439,-0.1436,-0.1423,-0.1425,-0.1427,-0.1473,-0.1436,-0.1437,-0.1438,-0.1439,-0.1438,-0.1438,0,0,0,0,0,0,-0.1446,-0.1454,-0.1482,-0.1456,-0.1459,-0.1449,-0.146,-0.1454,-0.1454,-0.1442,-0.144,-0.1452,-0.1423,-0.1425,-0.1441,-0.1472,-0.1438,-0.1438,-0.1439,-0.1439,-0.1438,-0.1536,0,0,0,0,0,0,-0.1442,-0.1453,-0.145,-0.1459,-0.1462,-0.149,-0.1462,-0.1454,-0.1474,-0.147,-0.1453,-0.1453,-0.1423,-0.1439,-0.1441,-0.1473,-0.1439,-0.144,-0.1439,-0.1438,-0.1533,-0.1539,-0.1544,0,0,0,0,0,-0.1438,-0.144,-0.145,-0.1459,-0.1467,-0.1492,-0.1487,-0.1469,-0.1475,-0.1469,-0.1457,-0.1455,-0.1435,-0.144,-0.1442,-0.1475,-0.144,-0.1439,-0.1438,-0.1531,-0.1538,-0.1544,0,0,0,0,0,0,-0.1388,-0.1436,-0.1446,-0.146,-0.1488,-0.1488,-0.1492,-0.1494,-0.1476,-0.1485,-0.1461,-0.146,-0.1474,-0.1458,-0.1464,-0.1464,-0.1433,-0.1433,-0.1503,-0.1509,-0.1514,-0.157,-0.1439,0,0,0,0,0,-0.1385,-0.1415,-0.1445,-0.1471,-0.1487,-0.1499,-0.1505,-0.1508,-0.1512,-0.1503,-0.1489,-0.1474,-0.1464,-0.1478,-0.145,-0.1477,-0.1473,-0.149,-0.1495,-0.15,-0.1541,-0.1549,-0.1561,-0.1435,-0.1435,-0.1435,0,0,-0.1392,-0.1416,-0.144,-0.1466,-0.1486,-0.1511,-0.1499,-0.1536,-0.1558,-0.1515,-0.1523,-0.1494,-0.1469,-0.1471,-0.1479,-0.1474,-0.1526,-0.1499,-0.1504,-0.1543,-0.155,-0.1563,-0.1574,-0.1434,-0.1434,-0.1434,0,0,-0.1422,-0.1434,-0.1465,-0.1487,-0.1535,-0.1539,-0.1567,-0.1579,-0.1579,-0.159,-0.1558,-0.156,-0.1536,-0.1528,-0.1524,-0.155,-0.1542,-0.1531,-0.1628,-0.1635,-0.1647,-0.1658,-0.1651,-0.166,-0.1549,-0.1549,-0.155,0,-0.1416,-0.1462,-0.1478,-0.1508,-0.1542,-0.1565,-0.1606,-0.1608,-0.1619,-0.1645,-0.1605,-0.1601,-0.1566,-0.1619,-0.1604,-0.157,-0.1567,-0.1615,-0.1648,-0.1658,-0.1668,-0.1658,-0.1667,-0.1554,-0.1553,-0.1553,-0.1553,0,-0.1457,-0.1502,-0.1531,-0.158,-0.1604,-0.1653,-0.168,-0.1711,-0.1719,-0.1717,-0.1757,-0.1706,-0.1708,-0.1691,-0.1656,-0.1714,-0.1686,-0.1645,-0.1647,-0.1688,-0.1672,-0.1681,-0.1561,-0.1559,-0.1558,-0.1556,0,0,-0.1459,-0.1538,-0.156,-0.1592,-0.1651,-0.1676,-0.1751,-0.181,-0.1845,-0.1859,-0.1896,-0.1892,-0.1871,-0.1864,-0.1829,-0.185,-0.1878,-0.1788,-0.1786,-0.181,-0.1895,-0.1857,-0.1861,-0.1851,-0.1853,-0.1855,-0.1852,0,-0.1498,-0.1564,-0.1596,-0.1679,-0.1722,-0.1777,-0.1822,-0.1882,-0.1896,-0.1914,-0.1952,-0.1929,-0.1935,-0.1906,-0.195,-0.1869,-0.1907,-0.1883,-0.1829,-0.1828,-0.1814,-0.1872,-0.17,-0.1683,-0.186,-0.1861,-0.1862,0,-0.1534,-0.1581,-0.1654,-0.1737,-0.1758,-0.179,-0.1883,-0.1918,-0.1984,-0.1988,-0.2053,-0.2024,-0.2077,-0.2022,-0.2058,-0.2043,-0.1997,-0.1959,-0.1956,-0.1907,-0.1807,-0.1671,-0.1691,-0.1875,-0.1874,-0.1873,-0.1872,0,-0.1536,-0.1628,-0.1684,-0.1712,-0.1792,-0.1843,-0.188,-0.1951,-0.1974,-0.2017,-0.2022,-0.2093,-0.208,-0.2097,-0.2053,-0.2038,-0.2062,-0.2006,-0.1962,-0.1956,-0.1795,-0.1773,-0.205,-0.205,-0.205,-0.205,-0.205,0,-0.1561,-0.1617,-0.1682,-0.1716,-0.1761,-0.1825,-0.1863,-0.1916,-0.1965,-0.1986,-0.2039,-0.2069,-0.2096,-0.2114,-0.2081,-0.2067,-0.2093,-0.2015,-0.1972,-0.1819,-0.18,-0.1952,-0.1941,-0.205,-0.205,-0.205,-0.205,0,-0.1548,-0.1608,-0.1656,-0.1737,-0.1762,-0.1777,-0.1832,-0.1856,-0.1917,-0.1949,-0.1962,-0.2043,-0.2075,-0.2109,-0.2088,-0.2078,-0.2052,-0.2037,-0.1859,-0.1799,-0.1933,-0.1927,-0.1987,-0.1987,-0.1986,-0.1985,-0.1985,0,-0.1541,-0.1573,-0.1632,-0.1645,-0.1674,-0.1713,-0.1747,-0.1817,-0.1842,-0.194,-0.1955,-0.2014,-0.2048,-0.2055,-0.2022,-0.1996,-0.2042,-0.1822,-0.1776,-0.1984,-0.1936,-0.1931,-0.1925,-0.1578,-0.1574,-0.1571,-0.1568,0,-0.1522,-0.1534,-0.1559,-0.1571,-0.1599,-0.1617,-0.1671,-0.1689,-0.1785,-0.1829,-0.1891,-0.1922,-0.1967,-0.1878,-0.1868,-0.1824,-0.1816,-0.1759,-0.2017,-0.1635,-0.1602,-0.1553,-0.156,-0.154,-0.1543,-0.1545,-0.1547,-0.1548,-0.1475,-0.1451,-0.1474,-0.1466,-0.15,-0.1508,-0.1498,-0.1574,-0.1603,-0.1656,-0.176,-0.1764,-0.1776,-0.1682,-0.1618,-0.1563,-0.1682,-0.1583,-0.159,-0.1602,-0.157,-0.1539,-0.1458,-0.146,-0.1462,-0.1464,-0.1465,0,-0.1401,-0.138,-0.1374,-0.1358,-0.1352,-0.14,-0.1438,-0.1417,-0.1431,-0.1502,-0.154,-0.1422,-0.1382,-0.1406,-0.1281,-0.1268,-0.1231,-0.1209,-0.1145,-0.1173,-0.1199,-0.1144,-0.0921,-0.0919,-0.0918,-0.0917,0,0,-0.1345,-0.1307,-0.1284,-0.122,-0.1219,-0.1174,-0.117,-0.1168,-0.1189,-0.1169,-0.1175,-0.13,-0.1354,-0.1134,-0.1085,-0.0982,-0.1062,-0.0932,-0.1365,-0.1317,-0.134,-0.1409,-0.1357,0,0,0,0,0]},{"header":{"parameterUnit":"m.s-1","parameterCategory":2,"la1":30.2991,"la2":30.254,"lo1":-89.0895,"lo2":-89.0444,"dy":0.0017,"dx":0.0017,"nx":28,"ny":28,"refTime":"2024-03-02T03:00:00:Z","depth":"2","parameterNumber":3,"parameterNumberName":"V-component_of_CURRENTS"},"data":[0,0,0,0,0,0,0,0,0,0,0,0,0,0,0,0,0,0,0,0,0,0,0,0,0,0,0,0,0,0,0,0,0,0,0,0,0,0,0,0,0,0,0,0,0,0,0,0,0,0,0,0,0,0,0,0,0,0,-0.0254,-0.0252,0,-0.0196,-0.0196,-0.0196,-0.02,-0.02,-0.02,-0.02,-0.0051,-0.0048,-0.0044,0,0,0,0,0,0,0,0,0,0,0,0,0,-0.0347,-0.0347,-0.0254,-0.0252,-0.025,-0.0196,-0.0196,-0.0197,-0.02,-0.02,-0.02,-0.02,-0.0053,-0.0048,-0.0043,0,0,0,0,0,0,0,0,0,0,0,0,0,-0.031,-0.0346,-0.0254,-0.0238,-0.0235,-0.0196,-0.0196,-0.0197,-0.02,-0.02,-0.02,-0.0199,-0.0054,-0.0048,-0.0043,-0.0011,0,0,-0.0025,-0.0023,0,0,0,0,0,0,0,0,-0.0312,-0.0308,-0.0242,-0.0239,-0.0235,-0.0196,-0.0174,-0.0126,-0.02,-0.0225,-0.02,-0.0199,-0.0084,-0.0076,-0.0082,-0.0004,0.0002,-0.0025,-0.0021,-0.0019,-0.0017,0,0,0,0,0,0,0,-0.0315,-0.031,-0.0242,-0.024,-0.0236,-0.0226,-0.0222,-0.0166,-0.0163,-0.0222,-0.022,-0.0197,-0.0083,-0.0088,-0.0078,0.0004,-0.0025,-0.002,-0.0016,-0.0014,0.014,0.014,0,0,0,0,0,0,-0.0302,-0.0313,-0.0243,-0.0239,-0.0262,-0.0224,-0.0219,-0.0217,-0.0165,-0.0155,-0.0197,-0.0197,-0.0098,-0.0085,-0.0073,-0.0004,-0.0019,-0.0013,-0.001,0.0139,0.014,0.014,0,0,0,0,0,0,-0.0304,-0.0297,-0.0245,-0.0265,-0.0256,-0.0221,-0.0219,-0.0216,-0.0204,-0.0145,-0.0135,-0.0185,-0.0097,-0.0081,-0.0013,0.0001,-0.0011,-0.0006,0.0138,0.0139,0.014,0.0116,0,0,0,0,0,0,-0.0308,-0.0299,-0.0301,-0.0265,-0.0254,-0.0218,-0.0218,-0.0215,-0.0186,-0.0186,-0.0131,-0.0119,-0.0096,-0.0022,-0.0008,0.0009,-0.0001,0.0137,0.0139,0.014,0.0116,0.0116,0.0116,0,0,0,0,0,-0.0312,-0.0322,-0.0302,-0.0293,-0.0256,-0.0216,-0.0211,-0.0192,-0.0185,-0.0183,-0.0142,-0.012,-0.0005,-0.0017,0.0,0.0018,0.0137,0.0138,0.014,0.0116,0.0116,0.0116,0,0,0,0,0,0,-0.0369,-0.032,-0.0299,-0.0295,-0.0249,-0.0212,-0.0205,-0.0183,-0.0153,-0.0148,-0.0102,-0.0086,-0.0027,0.0004,-0.0011,0.0065,0.0067,0.0072,0.0043,0.0043,0.0043,0.0043,0.0004,0,0,0,0,0,-0.0377,-0.0362,-0.0311,-0.0297,-0.028,-0.0237,-0.0218,-0.0198,-0.0158,-0.0147,-0.0106,-0.0059,-0.0012,0.0023,0.0063,0.0118,0.0136,0.0137,0.0137,0.0137,0.0148,0.0175,0.0178,0.0145,0.0145,0.0145,0,0,-0.0385,-0.0357,-0.0346,-0.0305,-0.0275,-0.0251,-0.0229,-0.0195,-0.0171,-0.013,-0.0092,-0.0053,0.0003,0.0049,0.0079,0.0081,0.0155,0.0139,0.0138,0.015,0.0177,0.018,0.0183,0.0146,0.0146,0.0146,0,0,-0.0396,-0.0378,-0.037,-0.0335,-0.0278,-0.0254,-0.0238,-0.0193,-0.0173,-0.0122,-0.0091,-0.0038,0.003,0.0069,0.01,0.0133,0.0151,0.0141,0.0149,0.0175,0.0177,0.018,0.0196,0.0201,0.0144,0.0144,0.0144,0,-0.0411,-0.0397,-0.0358,-0.0339,-0.0312,-0.0254,-0.0239,-0.0206,-0.0143,-0.0118,-0.0111,-0.0008,0.0039,0.0109,0.0114,0.0135,0.0144,0.0142,0.0174,0.0177,0.018,0.0196,0.0201,0.0143,0.0143,0.0143,0.0143,0,-0.0414,-0.0398,-0.0389,-0.0348,-0.0317,-0.0291,-0.0232,-0.0199,-0.0165,-0.0129,-0.0058,0.0003,0.0061,0.0085,0.0114,0.0166,0.0163,0.0165,0.0169,0.0182,0.0198,0.0204,0.0142,0.0142,0.0142,0.0142,0,0,-0.0453,-0.0407,-0.0398,-0.0387,-0.0322,-0.0301,-0.025,-0.0197,-0.0175,-0.0102,-0.0073,0.0028,0.0056,0.0094,0.0139,0.0177,0.0206,0.018,0.0182,0.0188,0.0252,0.0275,0.0284,0.0205,0.0206,0.0207,0.025,0,-0.0465,-0.0456,-0.0418,-0.0393,-0.0385,-0.0319,-0.0284,-0.0221,-0.0176,-0.0138,-0.0044,-0.0005,0.0061,0.0077,0.0134,0.0178,0.0222,0.0194,0.0247,0.0249,0.0262,0.0292,0.0265,0.0303,0.0255,0.0256,0.0257,0,-0.0475,-0.047,-0.0465,-0.043,-0.042,-0.0396,-0.0343,-0.0304,-0.022,-0.0188,-0.011,-0.0057,0.0035,0.0064,0.0186,0.0159,0.0212,0.0254,0.0256,0.0294,0.0284,0.0287,0.0316,0.0267,0.0266,0.0265,0.0265,0,-0.0526,-0.0497,-0.0505,-0.0489,-0.0442,-0.0424,-0.0394,-0.0319,-0.0297,-0.0228,-0.0217,-0.0098,-0.0055,0.004,0.0159,0.0156,0.0272,0.027,0.0352,0.0353,0.0352,0.0352,0.0356,0.0356,0.0355,0.0355,0.0355,0,-0.0557,-0.0555,-0.0534,-0.0534,-0.054,-0.0481,-0.0474,-0.0427,-0.0374,-0.036,-0.0253,-0.0218,-0.0062,0.0032,0.0134,0.027,0.0257,0.0368,0.0375,0.0342,0.0341,0.0329,0.0325,0.0357,0.0357,0.0356,0.0356,0,-0.0596,-0.0584,-0.0592,-0.0567,-0.0564,-0.0565,-0.0534,-0.0531,-0.0473,-0.0456,-0.044,-0.0312,-0.0185,-0.0022,0.0127,0.0232,0.0351,0.0402,0.0356,0.0359,0.0416,0.0411,0.0486,0.0487,0.0488,0.0489,0.049,0,-0.0618,-0.063,-0.0629,-0.0648,-0.0639,-0.0637,-0.0637,-0.0584,-0.0579,-0.0509,-0.0507,-0.0379,-0.0273,-0.0027,0.0173,0.0366,0.0379,0.0447,0.0457,0.0436,0.0434,0.0427,0.042,0.0436,0.0436,0.0437,0.0437,0,-0.0662,-0.0662,-0.0674,-0.0712,-0.0728,-0.0742,-0.0736,-0.0747,-0.0688,-0.0665,-0.0604,-0.0519,-0.0257,-0.0029,0.0241,0.0346,0.0416,0.0459,0.045,0.0412,0.0394,0.0391,0.0385,0.0439,0.0439,0.0439,0.0439,0.0439,-0.0693,-0.0717,-0.0741,-0.0774,-0.0803,-0.0832,-0.0845,-0.0839,-0.0833,-0.078,-0.0684,-0.0537,-0.0287,0.0092,0.0289,0.0469,0.0462,0.0506,0.0503,0.05,0.0492,0.0478,0.0536,0.0536,0.0536,0.0537,0.0537,0,-0.0735,-0.0762,-0.0803,-0.0841,-0.0885,-0.088,-0.0902,-0.0907,-0.0906,-0.082,-0.0733,-0.0474,-0.0192,0.0065,0.0359,0.0536,0.0521,0.0555,0.0508,0.0504,0.0501,0.0491,0.0536,0.0537,0.0537,0.0538,0,0,-0.076,-0.081,-0.0828,-0.0902,-0.0931,-0.0974,-0.0988,-0.0987,-0.0928,-0.0854,-0.0729,-0.0528,-0.0197,0.0015,0.0246,0.0403,0.0401,0.0408,0.0387,0.03,0.0295,0.045,0.0428,0,0,0,0,0]}],[{"header":{"parameterUnit":"m.s-1","parameterCategory":2,"la1":30.2991,"la2":30.254,"lo1":-89.0895,"lo2":-89.0444,"dy":0.0017,"dx":0.0017,"nx":28,"ny":28,"refTime":"2024-03-02T03:00:00:Z","depth":"4","parameterNumber":2,"parameterNumberName":"U-component_of_CURRENTS"},"data":[0,0,0,0,0,0,0,0,0,0,0,0,0,0,0,0,0,0,0,0,0,0,0,0,0,0,0,0,0,0,0,0,0,0,0,0,0,0,0,0,0,0,0,0,0,0,0,0,0,0,0,0,0,0,0,0,0,0,-0.0762,-0.0763,0,-0.0792,-0.0793,-0.0793,-0.0812,-0.0812,-0.0812,-0.0813,-0.0847,-0.0848,-0.0849,0,0,0,0,0,0,0,0,0,0,0,0,0,-0.0716,-0.0717,-0.0762,-0.0763,-0.0763,-0.0792,-0.0793,-0.0793,-0.0812,-0.0812,-0.0812,-0.0813,-0.0847,-0.0848,-0.0849,0,0,0,0,0,0,0,0,0,0,0,0,0,-0.0739,-0.0717,-0.0762,-0.0777,-0.0778,-0.0792,-0.0793,-0.0793,-0.0812,-0.0812,-0.0812,-0.0813,-0.0847,-0.0848,-0.0849,-0.0851,0,0,-0.0853,-0.0853,0,0,0,0,0,0,0,0,-0.0738,-0.0741,-0.0774,-0.0776,-0.0778,-0.0799,-0.0789,-0.0813,-0.0812,-0.0798,-0.0813,-0.0813,-0.0832,-0.0834,-0.0838,-0.0852,-0.0854,-0.0853,-0.0853,-0.0854,-0.0854,0,0,0,0,0,0,0,-0.0736,-0.074,-0.0774,-0.0775,-0.0777,-0.078,-0.0783,-0.0794,-0.0813,-0.08,-0.0801,-0.0806,-0.0833,-0.0837,-0.0839,-0.0854,-0.0853,-0.0854,-0.0854,-0.0855,-0.0921,-0.0922,0,0,0,0,0,0,-0.0734,-0.0738,-0.0773,-0.0775,-0.0759,-0.0781,-0.0785,-0.0792,-0.0813,-0.0816,-0.0805,-0.0806,-0.0835,-0.0838,-0.0841,-0.0887,-0.0854,-0.0855,-0.0856,-0.092,-0.0921,-0.0922,0,0,0,0,0,0,-0.0733,-0.0737,-0.0771,-0.0757,-0.0762,-0.0781,-0.0789,-0.0792,-0.0811,-0.0817,-0.0821,-0.0823,-0.0835,-0.0839,-0.0867,-0.0887,-0.0855,-0.0856,-0.0919,-0.092,-0.0922,-0.0952,0,0,0,0,0,0,-0.0732,-0.0737,-0.0746,-0.0757,-0.0763,-0.0791,-0.0789,-0.0792,-0.0813,-0.0815,-0.0833,-0.0836,-0.0836,-0.0865,-0.0868,-0.0888,-0.0857,-0.0917,-0.0919,-0.0921,-0.095,-0.0955,-0.0959,0,0,0,0,0,-0.073,-0.074,-0.0746,-0.075,-0.0773,-0.0792,-0.0795,-0.0809,-0.0813,-0.0826,-0.0841,-0.0836,-0.088,-0.0867,-0.087,-0.0891,-0.0916,-0.0919,-0.0921,-0.0948,-0.0954,-0.0959,0,0,0,0,0,0,-0.0725,-0.0744,-0.075,-0.0766,-0.0783,-0.0796,-0.0807,-0.0817,-0.0838,-0.0843,-0.0849,-0.0853,-0.0886,-0.0885,-0.087,-0.0917,-0.0898,-0.0901,-0.0917,-0.0923,-0.0927,-0.0926,-0.0858,0,0,0,0,0,-0.0728,-0.0742,-0.0759,-0.0773,-0.0781,-0.0797,-0.0808,-0.0819,-0.0836,-0.0846,-0.0861,-0.0877,-0.0895,-0.0907,-0.0921,-0.0944,-0.0965,-0.0961,-0.0965,-0.0969,-0.0971,-0.1019,-0.1028,-0.093,-0.093,-0.093,0,0,-0.0729,-0.0742,-0.075,-0.0774,-0.0786,-0.0806,-0.0805,-0.0826,-0.085,-0.0846,-0.0885,-0.0895,-0.0906,-0.0935,-0.0949,-0.0938,-0.1012,-0.0972,-0.0975,-0.0975,-0.1023,-0.1032,-0.1041,-0.0932,-0.0932,-0.0931,0,0,-0.0736,-0.0751,-0.0764,-0.0782,-0.0806,-0.0819,-0.0829,-0.0852,-0.087,-0.0904,-0.091,-0.0934,-0.0961,-0.0973,-0.0982,-0.102,-0.1036,-0.1026,-0.1047,-0.1094,-0.1103,-0.111,-0.1168,-0.1181,-0.1027,-0.1027,-0.1027,0,-0.0737,-0.0758,-0.0772,-0.0791,-0.0809,-0.0827,-0.0849,-0.087,-0.0904,-0.0922,-0.0922,-0.0973,-0.098,-0.1016,-0.1027,-0.1031,-0.1064,-0.1024,-0.11,-0.1108,-0.1115,-0.1173,-0.1186,-0.1029,-0.1028,-0.1028,-0.1028,0,-0.0751,-0.0775,-0.0785,-0.0817,-0.0839,-0.0861,-0.0891,-0.0919,-0.0942,-0.0963,-0.1009,-0.1022,-0.1052,-0.1058,-0.1052,-0.1106,-0.1117,-0.1102,-0.1086,-0.1127,-0.1185,-0.1199,-0.1031,-0.1031,-0.103,-0.103,0,0,-0.0731,-0.0784,-0.0788,-0.0813,-0.0856,-0.0876,-0.0919,-0.096,-0.1011,-0.1025,-0.109,-0.1095,-0.1103,-0.1113,-0.1116,-0.1147,-0.1229,-0.1146,-0.1148,-0.1202,-0.1352,-0.1229,-0.1232,-0.123,-0.1232,-0.1234,-0.1379,0,-0.0737,-0.0777,-0.0806,-0.0852,-0.0875,-0.0913,-0.096,-0.1002,-0.1053,-0.1126,-0.1129,-0.1191,-0.1126,-0.1164,-0.1176,-0.1231,-0.1263,-0.1192,-0.1305,-0.1308,-0.1192,-0.1242,-0.1241,-0.1389,-0.1392,-0.1395,-0.1396,0,-0.0734,-0.0766,-0.0808,-0.088,-0.0895,-0.0934,-0.1021,-0.1067,-0.1157,-0.1206,-0.1244,-0.1271,-0.1315,-0.1271,-0.1339,-0.13,-0.1322,-0.1349,-0.1355,-0.1234,-0.1208,-0.1335,-0.142,-0.1419,-0.1417,-0.1415,-0.1414,0,-0.0703,-0.0766,-0.0803,-0.0824,-0.0907,-0.0945,-0.0995,-0.1086,-0.1154,-0.1273,-0.1348,-0.1384,-0.1438,-0.1456,-0.1457,-0.1429,-0.1547,-0.1522,-0.1428,-0.1422,-0.1477,-0.1467,-0.1574,-0.1574,-0.1573,-0.1573,-0.1573,0,-0.069,-0.0722,-0.0797,-0.0819,-0.0883,-0.0942,-0.1046,-0.1105,-0.1235,-0.1321,-0.1383,-0.1449,-0.1488,-0.1537,-0.1526,-0.1506,-0.1595,-0.1443,-0.1447,-0.1489,-0.1478,-0.1488,-0.1476,-0.1578,-0.1577,-0.1576,-0.1575,0,-0.0647,-0.0695,-0.0744,-0.0835,-0.0871,-0.0915,-0.1067,-0.1152,-0.1268,-0.1395,-0.1438,-0.1538,-0.1586,-0.1607,-0.1672,-0.159,-0.16,-0.1568,-0.1634,-0.1639,-0.1438,-0.1427,-0.151,-0.1507,-0.1504,-0.1502,-0.15,0,-0.0627,-0.0646,-0.0742,-0.0786,-0.0833,-0.0929,-0.1012,-0.115,-0.1242,-0.1415,-0.1464,-0.1566,-0.1603,-0.1603,-0.162,-0.1619,-0.1568,-0.1583,-0.1472,-0.1434,-0.1431,-0.1424,-0.1416,-0.1496,-0.1495,-0.1494,-0.1493,0,-0.0584,-0.0621,-0.0661,-0.0748,-0.0834,-0.0938,-0.1055,-0.1117,-0.1271,-0.1398,-0.1455,-0.1477,-0.1533,-0.1533,-0.1539,-0.1519,-0.1583,-0.1554,-0.1558,-0.1454,-0.1417,-0.1416,-0.1411,-0.1484,-0.1485,-0.1486,-0.1487,0,-0.0549,-0.0561,-0.062,-0.0696,-0.0808,-0.09,-0.0977,-0.1078,-0.1175,-0.1346,-0.1355,-0.144,-0.1521,-0.1484,-0.1485,-0.1461,-0.1424,-0.1366,-0.138,-0.1391,-0.1271,-0.1202,-0.1217,0,0,0,0,0,-0.0503,-0.0514,-0.0574,-0.066,-0.0778,-0.0841,-0.099,-0.1072,-0.1218,-0.1225,-0.1285,-0.1318,-0.1322,-0.1361,-0.1307,-0.1423,-0.1428,-0.1353,-0.1367,-0.1431,-0.1442,-0.1305,0,0,0,0,0,0,-0.0472,-0.0506,-0.0537,-0.0621,-0.068,-0.0805,-0.0891,-0.0988,-0.0999,-0.1129,-0.1135,-0.1227,-0.1246,-0.1326,-0.1274,-0.1285,-0.1265,-0.1405,-0.1401,-0.1425,-0.1435,-0.1444,-0.1306,0,0,0,0,0]},{"header":{"parameterUnit":"m.s-1","parameterCategory":2,"la1":30.2991,"la2":30.254,"lo1":-89.0895,"lo2":-89.0444,"dy":0.0017,"dx":0.0017,"nx":28,"ny":28,"refTime":"2024-03-02T03:00:00:Z","depth":"4","parameterNumber":3,"parameterNumberName":"V-component_of_CURRENTS"},"data":[0,0,0,0,0,0,0,0,0,0,0,0,0,0,0,0,0,0,0,0,0,0,0,0,0,0,0,0,0,0,0,0,0,0,0,0,0,0,0,0,0,0,0,0,0,0,0,0,0,0,0,0,0,0,0,0,0,0,-0.0107,-0.0107,0,-0.0084,-0.0084,-0.0083,-0.0063,-0.0063,-0.0062,-0.0062,-0.0032,-0.0031,-0.0031,0,0,0,0,0,0,0,0,0,0,0,0,0,-0.0114,-0.0114,-0.0107,-0.0107,-0.0106,-0.0084,-0.0084,-0.0083,-0.0063,-0.0063,-0.0062,-0.0062,-0.0032,-0.0031,-0.0031,0,0,0,0,0,0,0,0,0,0,0,0,0,-0.0104,-0.0114,-0.0107,-0.0093,-0.0092,-0.0084,-0.0084,-0.0083,-0.0063,-0.0063,-0.0062,-0.0062,-0.0032,-0.0031,-0.0031,-0.0035,0,0,-0.0028,-0.0028,0,0,0,0,0,0,0,0,-0.0104,-0.0104,-0.0096,-0.0094,-0.0092,-0.0075,-0.0075,-0.0066,-0.0063,-0.0074,-0.0062,-0.0061,-0.0046,-0.0044,-0.0041,-0.0033,-0.0032,-0.0028,-0.0028,-0.0027,-0.0027,0,0,0,0,0,0,0,-0.0105,-0.0104,-0.0099,-0.0095,-0.0093,-0.0081,-0.0079,-0.0073,-0.0063,-0.0073,-0.0072,-0.0068,-0.0045,-0.0042,-0.004,-0.0031,-0.0028,-0.0027,-0.0027,-0.0027,-0.0005,-0.0005,0,0,0,0,0,0,-0.0108,-0.0105,-0.0099,-0.0098,-0.0097,-0.0081,-0.0079,-0.0082,-0.0063,-0.006,-0.0069,-0.0067,-0.0044,-0.0041,-0.0039,-0.0034,-0.0027,-0.0027,-0.0026,-0.0005,-0.0005,-0.0005,0,0,0,0,0,0,-0.0109,-0.0108,-0.01,-0.01,-0.0098,-0.0082,-0.0084,-0.0081,-0.0077,-0.006,-0.0056,-0.0067,-0.0043,-0.004,-0.003,-0.0033,-0.0026,-0.0025,-0.0005,-0.0005,-0.0005,-0.003,0,0,0,0,0,0,-0.0109,-0.0109,-0.0112,-0.0101,-0.0098,-0.0098,-0.0085,-0.0081,-0.0075,-0.0073,-0.0057,-0.0054,-0.0043,-0.0032,-0.003,-0.0032,-0.0025,-0.0005,-0.0005,-0.0005,-0.0029,-0.0031,-0.0032,0,0,0,0,0,-0.011,-0.0118,-0.0113,-0.0112,-0.0103,-0.0099,-0.0097,-0.0084,-0.0075,-0.0077,-0.0062,-0.0054,-0.0029,-0.0031,-0.0029,-0.0031,-0.0005,-0.0005,-0.0005,-0.0029,-0.003,-0.0032,0,0,0,0,0,0,-0.0122,-0.0116,-0.011,-0.0116,-0.0108,-0.0095,-0.0095,-0.0086,-0.0075,-0.0073,-0.0055,-0.0051,-0.0043,-0.0033,-0.0036,-0.0023,-0.0015,-0.0014,-0.0034,-0.0035,-0.0037,-0.0046,-0.0024,0,0,0,0,0,-0.0126,-0.0132,-0.0121,-0.0125,-0.0123,-0.0109,-0.0105,-0.0098,-0.0086,-0.0081,-0.0068,-0.0053,-0.0041,-0.0035,-0.0024,-0.002,0.0005,-0.0018,-0.0019,-0.0021,-0.0026,0.0009,0.001,-0.0004,-0.0004,-0.0004,0,0,-0.0133,-0.0129,-0.0132,-0.0128,-0.0121,-0.0123,-0.0106,-0.0104,-0.0103,-0.008,-0.0074,-0.0059,-0.0041,-0.0034,-0.0029,-0.0025,-0.0001,-0.002,-0.0022,-0.0026,0.0009,0.0011,0.0012,-0.0004,-0.0004,-0.0004,0,0,-0.0148,-0.0144,-0.0154,-0.015,-0.0142,-0.0135,-0.0135,-0.0123,-0.0114,-0.0108,-0.0089,-0.0075,-0.0059,-0.0045,-0.0036,-0.0039,-0.0009,-0.0033,-0.0048,-0.0015,-0.0013,-0.0012,0.0034,0.004,-0.0034,-0.0034,-0.0034,0,-0.0154,-0.0165,-0.0155,-0.0161,-0.0161,-0.0142,-0.0151,-0.0141,-0.0125,-0.0121,-0.0109,-0.008,-0.0065,-0.0053,-0.0052,-0.0043,-0.0013,-0.0045,-0.0017,-0.0015,-0.0013,0.0034,0.004,-0.0035,-0.0035,-0.0035,-0.0034,0,-0.0174,-0.0183,-0.0188,-0.0191,-0.019,-0.0195,-0.018,-0.0177,-0.0163,-0.015,-0.0135,-0.0108,-0.0091,-0.0081,-0.0068,-0.0049,-0.0027,-0.0023,-0.0014,-0.0013,0.0036,0.0043,-0.0036,-0.0036,-0.0036,-0.0035,0,0,-0.0188,-0.0202,-0.0203,-0.0215,-0.0207,-0.0213,-0.021,-0.0206,-0.0206,-0.0181,-0.0172,-0.0147,-0.0129,-0.0117,-0.0093,-0.0063,-0.0018,-0.0039,-0.0036,0.0004,0.0071,0.0053,0.006,-0.0006,-0.0005,-0.0005,0.0104,0,-0.0207,-0.0233,-0.0231,-0.0255,-0.0269,-0.0255,-0.0257,-0.0249,-0.023,-0.0214,-0.0178,-0.016,-0.0142,-0.0129,-0.0098,-0.0039,-0.0002,-0.0047,0.0066,0.0069,0.0051,0.0066,-0.0002,0.011,0.0111,0.0113,0.0113,0,-0.0225,-0.0243,-0.0273,-0.0297,-0.0302,-0.0312,-0.0316,-0.0312,-0.0281,-0.0265,-0.0236,-0.02,-0.0154,-0.0136,-0.0038,-0.0065,-0.0003,0.0047,0.0052,0.0046,0.0064,0.0106,0.0127,0.0126,0.0125,0.0124,0.0123,0,-0.0244,-0.0273,-0.0303,-0.0309,-0.0327,-0.0341,-0.0347,-0.0331,-0.0332,-0.0289,-0.0279,-0.0218,-0.0183,-0.0103,-0.001,-0.0016,0.0108,0.0114,0.016,0.0161,0.0155,0.0153,0.0186,0.0186,0.0186,0.0185,0.0185,0,-0.0263,-0.0288,-0.0319,-0.0334,-0.0376,-0.0371,-0.0397,-0.039,-0.0371,-0.0375,-0.0308,-0.0289,-0.0173,-0.0093,-0.0006,0.0097,0.0113,0.0161,0.0184,0.0145,0.0139,0.0162,0.0158,0.0189,0.0188,0.0188,0.0187,0,-0.0276,-0.0294,-0.0338,-0.0372,-0.0387,-0.0415,-0.0443,-0.0458,-0.0429,-0.0426,-0.0412,-0.0329,-0.0224,-0.0105,0.0039,0.0096,0.0203,0.0236,0.0196,0.0215,0.0238,0.0232,0.0306,0.0306,0.0306,0.0306,0.0306,0,-0.0285,-0.0306,-0.0368,-0.0406,-0.0427,-0.0465,-0.0494,-0.049,-0.0498,-0.0458,-0.0456,-0.0354,-0.0289,-0.0089,0.0031,0.0208,0.0221,0.0284,0.0249,0.0234,0.0249,0.0242,0.0235,0.0307,0.0307,0.0307,0.0307,0,-0.0301,-0.0325,-0.0362,-0.044,-0.049,-0.0542,-0.0575,-0.0583,-0.0569,-0.0547,-0.0485,-0.0379,-0.0257,-0.0101,0.004,0.0158,0.0246,0.0286,0.0286,0.0254,0.0236,0.0249,0.0243,0.0307,0.0307,0.0307,0.0307,0,-0.0313,-0.0346,-0.0401,-0.0471,-0.0543,-0.06,-0.0614,-0.0616,-0.0615,-0.0558,-0.0539,-0.0401,-0.0312,-0.0126,-0.0003,0.0118,0.0143,0.0175,0.0181,0.0182,0.0103,0.0059,0.0098,0,0,0,0,0,-0.0315,-0.0358,-0.0429,-0.0511,-0.0586,-0.0627,-0.0663,-0.0662,-0.0643,-0.0608,-0.057,-0.0456,-0.0264,-0.0172,-0.0053,-0.0008,0.0158,0.0133,0.0195,0.0311,0.031,0.0234,0,0,0,0,0,0,-0.032,-0.038,-0.0425,-0.0533,-0.0594,-0.0673,-0.07,-0.069,-0.0653,-0.0612,-0.0503,-0.0439,-0.0244,-0.0333,-0.0055,-0.0018,0.0034,0.0231,0.0233,0.0311,0.0311,0.031,0.0232,0,0,0,0,0]}]]